TIME,DELAY(SENSOR),PRES,T(CTD),SAL,OXYGEN,RAWTEMP,T(OPTODE),TCPHASE,FLUOR,BETA(BETA700),BETA(BETA412),BETA(BETA440),CDOM,C(CSC),ED(ED411.90),ED(ED443.80),ED(ED489.40),ED(ED554.70),LU(LU412.20),LU(LU443.80),LU(LU489.40),LU(LU555.00),COMP,TILTX,TILTX(TILTY),CHECK
1354549537,5807,497.2000122070312500,17.1830005645751950,36.4076995849609400,229.5001983642578000,182.2686004638672000,17.1829109191894530,31.3688297271728500,50,99,53,54,52,13119,2146955136,2147509897,2147269001,2147465645,2147085970,2146959085,2147653577,2147123812,1798,-1,8,3838
1354549658,5808,486.0400085449219000,17.3190002441406250,36.4336013793945300,231.2021942138672000,178.0386047363281200,17.3104896545410160,31.2263603210449220,51,98,53,54,51,13120,2146956589,2147509339,2147266221,2147463954,2147087314,2146958171,2147653979,2147124763,876,-1,8,18978
1354549781,5803,474.6499938964844000,17.3925991058349600,36.4488983154296900,232.2899932861328000,175.4207000732422000,17.3894596099853500,31.1373996734619140,50,97,54,55,52,13117,2146956169,2147507803,2147265627,2147464548,2147087661,2146954852,2147652123,2147122112,3346,-1,8,2961
1354549902,5806,463.5299987792969000,17.4757003784179700,36.4631004333496100,232.6213989257812500,172.6875000000000000,17.4719200134277340,31.0839900970459000,50,98,55,55,52,13116,2146955931,2147510089,2147262710,2147458258,2147086902,2146958518,2147652150,2147119789,2249,-2,8,52958
1354550026,5805,452.2200012207031000,17.5487995147705080,36.4771995544433600,233.4998931884765600,170.2133026123047000,17.5465698242187500,31.0079193115234380,50,98,54,53,51,13119,2146958747,2147509494,2147263140,2147460617,2147087414,2146958838,2147653814,2147126774,1260,-1,8,614
1354550147,5808,441.3099975585937500,17.6103000640869140,36.4882011413574200,234.4217987060547000,168.2442016601562500,17.6059894561767580,30.9364395141601560,50,98,54,54,52,13118,2146956571,2147512996,2147264932,2147459684,2147088841,2146957540,2147658194,2147119862,142,-2,8,1501
1354550268,5803,430.4500122070312500,17.6618003845214840,36.4984016418457000,235.0155029296875000,166.4694976806640600,17.6595497131347660,30.8835506439209000,50,98,54,54,52,13119,2146956114,2147512557,2147265654,2147460169,2147082678,2146959168,2147657709,2147123117,2105,-1,8,49131
1354550391,5807,419.3999938964844000,17.7252006530761720,36.5094985961914060,235.6157073974609400,164.0937957763672000,17.7312507629394530,30.8225994110107420,50,99,53,53,51,13118,2146958198,2147511881,2147267538,2147459145,2147086089,2146961773,2147655414,2147121874,884,-1,8,5641
1354550512,5804,408.5599975585937500,17.7907009124755860,36.5192985534668000,236.0704040527343800,162.3397979736328000,17.7842006683349600,30.7772808074951170,50,96,54,54,52,13117,2146955702,2147509997,2147263698,2147456557,2147084973,2146960658,2147652909,2147124224,3125,-1,8,56624
1354550636,5807,397.4700012207031000,17.8412990570068360,36.5280990600585940,235.5402984619140600,160.6174011230468800,17.8362007141113280,30.7796707153320300,50,96,54,54,51,13117,2146955309,2147515044,2147265947,2147457618,2147085952,2146960576,2147653366,2147124013,1794,-1,8,59366
1354550757,5803,386.6300048828125000,17.8833007812500000,36.5336990356445300,235.7776031494140600,159.2359924316406200,17.8778991699218750,30.7497806549072270,50,99,55,54,52,13116,2146958802,2147514011,2147264585,2147456009,2147083702,2146960256,2147655670,2147128502,816,-1,9,42593
1354550889,5805,374.7900085449219000,17.9085998535156250,36.5373992919921900,235.8188018798828000,158.3524932861328000,17.9045791625976560,30.7360496520996100,50,97,55,54,52,13117,2146956544,2147509933,2147264749,2147458989,2147086235,2146960182,2147654418,2147119387,3295,-1,8,37263
1354551012,5806,363.9899902343750000,17.9645996093750000,36.5461997985839840,235.8079986572265600,156.4618072509765600,17.9616699218750000,30.7110404968261720,51,98,54,53,52,13115,2146957412,2147510546,2147267300,2147458368,2147086528,2146955218,2147654308,2147125028,1655,-2,8,47296
1354551133,5806,353.6300048828125000,18.0046005249023440,36.5517997741699200,235.7400970458984400,155.0874023437500000,18.0031795501709000,30.6959095001220700,50,98,54,54,51,13116,2146958637,2147512420,2147265993,2147459520,2147084873,2146959853,2147653220,2147128969,176,-1,8,4726
1354551268,5804,342.2099914550781000,18.0730991363525400,36.5602989196777340,234.9239044189453000,152.8829040527343800,18.0697498321533200,30.7058906555175780,50,97,55,55,53,13114,2146960064,2147515245,2147265874,2147458267,2147082075,2146960886,2147654436,2147129024,2300,-1,8,27773
1354551400,5805,331.4100036621094000,18.1226997375488280,36.5666999816894500,234.1499938964843800,151.1349029541015600,18.1225490570068360,30.7199802398681640,50,100,55,54,52,13113,2146958262,2147510674,2147263844,2147458678,2147089792,2146959890,2147653878,2147130678,1637,-2,8,11371
1354551532,5806,321.0799865722656000,18.1672992706298830,36.5708007812500000,233.2406005859375000,149.7752075195312500,18.1636295318603500,30.7457408905029300,50,97,55,54,51,13114,2146958226,2147510829,2147266486,2147457664,2147083602,2146959012,2147656310,2147126006,148,-1,9,11440
1354551688,5803,309.4599914550781000,18.2553997039794920,36.5778999328613300,231.8390045166015600,146.7846069335937500,18.2539901733398440,30.7742195129394530,51,99,52,54,52,13109,2146957952,2147512786,2147267584,2147457152,2147086509,2146960173,2147657051,2147124553,2328,-1,8,12076
1354551831,5805,299.1499938964844000,18.3418998718261720,36.5839996337890600,230.2474060058593800,143.9082946777343800,18.3409099578857420,30.8137092590332030,50,100,54,53,51,13110,2146956269,2147512256,2147266048,2147456850,2147086308,2146963556,2147658377,2147125723,1447,-1,8,476
1354551976,5805,287.1600036621094000,18.4610996246337900,36.5891990661621100,228.3842926025390600,139.8005981445312500,18.4650707244873050,30.8511104583740230,50,99,53,55,52,13111,2146959414,2147513554,2147266587,2147453705,2147086418,2146966564,2147657746,2147129188,2646,-1,9,23829
1354552086,5806,276.4599914550781000,18.5524997711181640,36.5924987792968750,228.0433044433593800,136.9748992919922000,18.5505104064941400,30.8299808502197270,50,98,54,55,52,13112,2146956114,2147512658,2147262948,2147453915,2147086162,2146971236,2147664128,2147130057,940,-1,9,63532
1354552210,5804,264.0799865722656000,18.6580009460449220,36.5732994079589840,229.8106994628906200,133.4149017333984400,18.6581707000732420,30.6954803466796880,50,96,55,54,52,13114,2146953060,2147510070,2147266130,2147452790,2147082806,2146967286,2147668598,2147130011,731,-1,8,44557
1354552320,5804,253.0399932861328000,18.7399997711181640,36.5703010559082000,230.3088073730468800,130.7245025634765600,18.7395591735839840,30.6348991394042970,50,98,54,54,52,13114,2146955117,2147510729,2147265856,2147455232,2147077376,2146973732,2147676214,2147130148,3021,-1,8,59698
1354552430,5806,242.0399932861328000,18.7845993041992200,36.5603981018066400,232.8161926269531200,129.1166992187500000,18.7882003784179700,30.4915790557861330,51,97,55,55,53,13114,2146955840,2147511177,2147266139,2147451209,2147087853,2146976539,2147685083,2147133613,1525,-1,9,13340
1354552540,5803,231.7500000000000000,18.9766006469726560,36.5714988708496100,233.1730041503906200,123.0403976440429700,18.9720993041992200,30.3939304351806640,51,99,54,55,52,13115,2146956608,2147510738,2147265453,2147454006,2147085074,2146977636,2147692388,2147131373,1191,-2,8,53275
1354552702,5806,220.8000030517578000,19.0858001708984380,36.5731010437011700,237.2554931640625000,119.5762023925781200,19.0769901275634770,30.1534500122070300,51,97,54,53,52,13114,2146957485,2147511826,2147266066,2147454665,2147087305,2146990436,2147709577,2147132123,3416,-1,9,16096
1354552877,5801,208.8699951171875000,19.1818008422851560,36.5616989135742200,242.1961059570312500,116.3319015502929700,19.1752490997314450,29.8809509277343750,50,99,53,54,52,13111,2146955145,2147515483,2147268096,2147451867,2147078345,2147005366,2147731620,2147132781,2546,-1,8,15818
1354553009,5807,197.8000030517578000,19.2399005889892580,36.5614013671875000,244.7980041503906200,114.4805984497070300,19.2313404083251950,29.7379302978515620,50,100,54,54,53,13112,2146957293,2147513718,2147266048,2147449929,2147082843,2147017417,2147766107,2147136685,1944,-1,9,6344
1354553064,5805,193.2799987792968800,19.2828006744384770,36.5643005371093750,244.9246063232422000,112.6139984130859400,19.2879009246826170,29.7079105377197270,51,101,55,54,51,13111,2146955803,2147514221,2147266377,2147450605,2147085293,2147026523,2147783286,2147137526,1433,-2,9,33688
1354553139,5807,187.4600067138672000,19.3246994018554700,36.5688018798828100,244.8032073974609400,111.3002014160156200,19.3277091979980470,29.6963806152343750,50,100,54,54,51,13111,2146957421,2147514075,2147267593,2147451995,2147089362,2147038793,2147802395,2147134747,860,-1,9,31901
1354553194,5805,183.4799957275390600,19.3666992187500000,36.5707015991210940,244.8619995117187500,110.0570983886718800,19.3653907775878900,29.6775302886962900,51,99,54,54,50,13110,2146958052,2147513590,2147267145,2147446738,2147088475,2147050368,2147823780,2147138331,471,-1,8,52087
1354553249,5805,179.4700012207031200,19.3875007629394530,36.5680007934570300,244.3589019775390600,109.2598037719726600,19.3895492553710940,29.6898994445800780,52,100,55,55,52,13107,2146956370,2147512978,2147269641,2147449380,2147088832,2147059986,2147843227,2147142610,3546,-2,9,4186
1354553304,5806,175.3899993896484400,19.4214992523193360,36.5719985961914060,244.3330993652343800,108.2477035522461000,19.4202308654785160,29.6779899597167970,50,100,53,54,51,13109,2146954779,2147517321,2147270116,2147449307,2147090550,2147079369,2147866221,2147140937,3073,-1,9,12347
1354553359,5802,171.3000030517578000,19.4435005187988280,36.5750007629394500,244.0894927978515600,107.3296966552734400,19.4480705261230470,29.6772193908691400,50,101,53,55,51,13108,2146953389,2147513682,2147269906,2147447204,2147094317,2147100827,2147894244,2147144548,2574,-1,9,3298
1354553414,5802,167.1699981689453000,19.5004997253417970,36.5807991027832000,243.7362976074218800,105.6243972778320300,19.4997692108154300,29.6711292266845700,51,102,55,54,52,13103,2146953261,2147516315,2147271241,2147452827,2147094491,2147109001,2147927314,2147149083,2309,-1,9,46737
1354553492,5805,161.5899963378906200,19.5545005798339840,36.5842018127441400,243.3787994384765600,103.9382019042968800,19.5509109497070300,29.6656494140625000,50,101,55,54,52,13106,2146955556,2147518427,2147274413,2147451254,2147095369,2147146002,2147976201,2147148379,2457,-2,9,41347
1354553547,5807,158.1000061035156200,19.5734996795654300,36.5857009887695300,243.2648925781250000,103.3623962402343800,19.5683708190917970,29.6632900238037100,51,101,55,55,51,13107,2146953353,2147518656,2147274358,2147451072,2147093750,2147162550,2148011922,2147152027,2242,-1,8,58415
1354553613,5806,153.9600067138672000,19.6208992004394530,36.5895996093750000,243.0708007812500000,101.7539978027343800,19.6171607971191400,29.6512794494628900,50,100,55,54,52,13107,2146957412,2147521654,2147277083,2147447442,2147108434,2147194084,2148058185,2147155081,2435,-2,9,14146
1354553679,5804,149.9499969482422000,19.6653995513916000,36.5933990478515600,242.6900939941406200,100.3410034179687500,19.6600303649902340,29.6504402160644530,52,100,54,55,50,13105,2146957476,2147518299,2147279140,2147451428,2147114075,2147230253,2148110336,2147157677,2517,-2,9,53327
1354553745,5805,146.2899932861328000,19.7273998260498050,36.5970001220703100,242.4927978515625000,98.2659378051757800,19.7229995727539060,29.6326103210449220,51,101,54,54,52,13105,2146954569,2147518189,2147278683,2147450340,2147123026,2147268397,2148165723,2147161408,2327,-2,9,38295
1354553823,5804,142.8000030517578000,19.7646007537841800,36.5998992919921900,242.5104064941406200,97.0410232543945300,19.7601699829101560,29.6161308288574220,52,101,53,54,52,13103,2146956288,2147521810,2147281956,2147449005,2147130020,2147296813,2148218441,2147166171,2122,-2,9,17616
1354553955,5807,139.3099975585937500,19.7980003356933600,36.6021995544433600,242.7073059082031200,95.9800262451171900,19.7923793792724600,29.5931491851806640,52,101,54,54,51,13100,2146958272,2147523492,2147285421,2147449261,2147139126,2147337014,2148277412,2147171355,2145,-2,9,34283
1354554131,5804,135.1000061035156200,20.0779991149902340,36.6228981018066400,240.9656066894531200,86.9397277832031200,20.0669307708740230,29.5565299987792970,54,103,54,55,52,13097,2146957449,2147526107,2147284946,2147452059,2147160704,2147403346,2148359533,2147174573,2419,-2,8,63173
1354554241,5803,130.7400054931640600,20.2646007537841800,36.6426010131835940,239.8332061767578000,80.8130569458007800,20.2531700134277340,29.5296802520751950,55,103,54,54,51,13094,2146959899,2147529280,2147290688,2147448009,2147179821,2147477220,2148472539,2147182372,2135,-2,9,59878
1354554340,5806,126.8000030517578100,20.4904003143310550,36.6447982788085940,237.7032012939453000,73.6404571533203100,20.4713802337646500,29.5358695983886720,58,104,55,54,53,13087,2146962020,2147528640,2147295113,2147450413,2147203218,2147562176,2148591332,2147192036,1458,-2,9,5111
1354554452,5804,122.3199996948242200,20.7054004669189450,36.6610984802246100,237.7035980224609400,66.2591781616211000,20.6961402893066400,29.4412002563476560,64,108,54,55,53,13082,2146962029,2147535862,2147299538,2147448182,2147246098,2147674212,2148754212,2147205641,1284,-2,9,36272
1354554529,5805,118.4899978637695300,20.8561992645263670,36.6693000793457000,236.7449035644531200,61.0266914367675800,20.8556098937988280,29.4185600280761720,63,110,56,55,52,13076,2146960310,2147541184,2147305746,2147447405,2147282121,2147791744,2148908662,2147216420,1178,-1,8,57984
1354554617,5802,114.5899963378906200,21.0461997985839840,36.6852989196777340,235.7942962646484400,55.2073593139648440,21.0331001281738280,29.3883895874023440,64,110,55,55,51,13081,2146963163,2147543963,2147310180,2147448384,2147332425,2147920338,2149081152,2147229732,1480,-1,9,56073
1354554716,5803,110.8000030517578100,21.3672008514404300,36.7352981567382800,230.6065979003906200,44.9669113159179700,21.3458003997802730,29.5025997161865230,59,107,55,53,51,13083,2146966290,2147548516,2147324187,2147445376,2147393325,2148081289,2149274697,2147245549,1120,-2,9,65384
1354554839,5805,107.1299972534179700,21.4629993438720700,36.7350997924804700,226.5773010253906200,41.8499794006347660,21.4410705566406250,29.6573905944824220,55,111,55,53,53,13088,2146972333,2147554459,2147333979,2147444461,2147470134,2148256804,2149479442,2147260699,237,-1,9,29841
1354554993,5806,103.3099975585937500,21.7059993743896500,36.7144012451171900,229.4391021728515600,35.6903610229492200,21.6294708251953120,29.4400501251220700,57,110,55,56,52,13084,2146971574,2147561453,2147345142,2147443931,2147569554,2148483638,2149767753,2147285321,734,-1,9,1938
1354555148,5806,99.0500030517578100,21.9234008789062500,36.7134017944335940,234.1316986083984400,26.5755100250244140,21.9086208343505860,29.1015605926513670,62,114,55,54,51,13073,2146980123,2147574354,2147361051,2147443163,2147723949,2148798180,2150152036,2147317065,1262,-2,9,61845
1354555203,5804,97.1699981689453100,22.0646991729736330,36.7190017700195300,234.0854034423828000,22.1102294921875000,22.0455207824707030,29.0471401214599600,63,119,56,55,50,13060,2146983707,2147583213,2147367186,2147445357,2147796498,2148953088,2150341266,2147332333,1429,-2,9,60609
1354555269,5804,95.3199996948242200,22.1912994384765620,36.7324981689453100,232.5046997070312500,18.6228199005126950,22.1525096893310550,29.0770606994628900,66,128,55,54,51,13051,2146988187,2147584804,2147374372,2147441792,2147874651,2149097033,2150514752,2147344960,1360,-1,9,59218
1354555357,5809,93.4700012207031200,22.2430992126464840,36.7033996582031250,230.3757019042968800,16.1002998352050780,22.2299404144287100,29.1459197998046880,72,118,56,53,52,13048,2146989869,2147590454,2147375917,2147443062,2147970825,2149273545,2150710153,2147361097,1747,-2,9,25630
1354555458,5805,91.5999984741211000,22.4389991760253900,36.4989013671875000,239.6197967529297000,9.7478265762329100,22.4250793457031250,28.6368408203125000,81,129,55,55,51,13015,2146997522,2147597238,2147389878,2147441252,2148073417,2149450816,2150911625,2147381906,1735,-2,9,53748
1354555813,5804,88.8300018310546900,22.4496002197265620,36.4940986633300800,247.5661926269531200,8.9302625656127930,22.4502105712890620,28.2737693786621100,81,122,55,54,51,13017,2147008621,2147614857,2147418075,2147439104,2148341851,2149857746,2151372306,2147421750,1255,-2,9,29535
1354555868,5804,86.8899993896484400,22.4722003936767580,36.4592018127441400,248.6260986328125000,8.3829593658447270,22.4670391082763670,28.2208404541015620,85,126,55,56,51,13006,2147019035,2147625956,2147434633,2147439369,2148531803,2150152429,2151701604,2147453979,1083,-2,9,1580
1354555923,5804,85.1100006103515600,22.4734001159667970,36.4585990905761700,249.7747039794922000,8.3036899566650390,22.4694805145263670,28.1703395843505860,85,128,56,54,50,12999,2147026258,2147639140,2147456018,2147442377,2148706834,2150423570,2151996973,2147482020,902,-1,9,20521
1354555989,5805,83.1999969482421900,22.4815006256103500,36.4547996520996100,250.6838989257812500,7.9963541030883790,22.4789295196533200,28.1274394989013670,86,129,55,55,50,13000,2147034432,2147652278,2147466459,2147441673,2148919707,2150745060,2152366281,2147514066,1226,-1,9,4101
1354556066,5805,80.3099975585937500,22.4748992919921880,36.4492988586425800,251.4871063232422000,8.1885242462158200,22.4730205535888670,28.0953197479248050,86,132,56,56,50,12987,2147050806,2147674788,2147501750,2147445558,2149337691,2151376822,2153066770,2147590107,1226,-1,9,3905
1354556121,5808,77.4499969482421900,22.4694995880126950,36.4440002441406250,251.5509948730468800,8.3651571273803710,22.4675903320312500,28.0947895050048830,88,132,55,56,50,12972,2147067035,2147704868,2147551168,2147450614,2149765092,2152042002,2153805997,2147667209,907,-1,9,50477
1354556176,5808,74.4400024414062500,22.4664001464843750,36.4404983520507800,251.7776947021484400,8.4756994247436520,22.4641895294189450,28.0865802764892580,88,133,56,54,50,12966,2147088521,2147733357,2147596306,2147453449,2150286564,2152831890,2154671533,2147755958,443,-1,9,2188
1354556231,5808,71.3899993896484400,22.4640998840332030,36.4392013549804700,251.6918029785156200,8.5179891586303710,22.4628906250000000,28.0907096862792970,88,135,56,56,50,12972,2147112137,2147762185,2147616493,2147456841,2150839460,2153646765,2155536192,2147854683,3526,-2,9,5359
1354556286,5807,68.2699966430664000,22.4596004486084000,36.4369010925293000,251.9197998046875000,8.6425962448120120,22.4590606689453120,28.0824794769287100,89,134,55,56,51,12972,2147139840,2147801856,2147651227,2147453677,2151511826,2154649947,2156624411,2147976658,3146,-2,9,44364
1354556341,5809,65.1699981689453100,22.4617004394531250,36.4365005493164060,252.0783996582031200,8.6120100021362300,22.4599990844726560,28.0754203796386720,89,134,56,55,52,12966,2147175168,2147843538,2147696877,2147458066,2152320329,2155862317,2157957046,2148130020,2749,-1,9,42604
1354556398,5804,61.8800010681152340,22.4524993896484380,36.4331016540527340,252.0182952880859400,8.8719434738159180,22.4520092010498050,28.0812091827392580,89,137,56,56,50,12960,2147219364,2147901851,2147767661,2147465737,2153397037,2157423195,2159635995,2148351936,2398,-1,9,55980
1354556453,5804,58.6599998474121100,22.4521999359130860,36.4324989318847660,252.0005035400390600,8.9022340774536130,22.4510707855224600,28.0822601318359380,90,136,56,56,50,12934,2147272905,2147970048,2147857654,2147473728,2154758473,2159408832,2161783497,2148641993,2386,-2,9,2678
1354556508,5802,55.4099998474121100,22.4500999450683600,36.4317016601562500,252.1663055419922000,8.9569149017333980,22.4493904113769530,28.0758991241455080,89,135,57,56,50,12951,2147336585,2148049883,2147944969,2147481828,2156135085,2161282505,2163760155,2148925915,2252,-1,9,15917
1354556650,5808,48.0999984741210940,22.4540004730224600,36.4314002990722660,252.4299011230468800,8.8645668029785160,22.4522304534912100,28.0634403228759770,89,149,56,57,50,12957,2147536658,2148302729,2148253430,2147515154,2160848411,2167703524,2170364845,2150022948,1933,-1,9,43162
1354556684,5806,46.0900001525878900,22.4521999359130860,36.4305992126464840,252.4752044677734400,8.8777446746826170,22.4518299102783200,28.0617809295654300,89,134,56,56,50,12952,2147604297,2148390509,2148348708,2147531154,2162393572,2169662390,2172310326,2150416438,1908,-2,9,60076
1354556719,5806,43.9700012207031250,22.4517002105712900,36.4305992126464840,252.6174011230468800,8.8682050704956050,22.4521198272705080,28.0555706024169920,89,134,57,56,50,12950,2147688640,2148495442,2148484388,2147549485,2164371657,2172319030,2175067474,2150914450,1767,-2,9,46215
1354556752,5805,42.0099983215332000,22.4515991210937500,36.4303016662597660,252.5856018066406200,8.8643693923950200,22.4522399902343750,28.0568408966064450,89,137,56,56,50,12948,2147779081,2148608118,2148632530,2147574646,2166414747,2174879332,2177625490,2151431789,1576,-2,9,44915
1354556785,5804,40.0600013732910160,22.4512004852294920,36.4295005798339840,252.5260009765625000,8.8563051223754880,22.4524898529052730,28.0594501495361330,88,138,55,55,50,12948,2147883638,2148730761,2148805787,2147616448,2168649609,2177699885,2180383826,2152044818,1401,-1,9,8526
1354556818,5806,38.1699981689453100,22.4514999389648440,36.4291000366210940,252.5068969726562500,8.8318166732788090,22.4532394409179700,28.0598392486572270,87,144,56,55,50,12940,2147987712,2148857554,2148982070,2147670043,2171152420,2180815716,2183451794,2152791634,1293,-2,9,22200
1354556851,5803,36.2700004577636700,22.4507007598876950,36.4292984008789060,252.7261047363281200,8.8018207550048830,22.4541606903076170,28.0501995086669920,88,140,57,56,50,12944,2148114532,2149002468,2149166784,2147722971,2173888786,2184120091,2186546176,2153588781,1253,-2,9,27430
1354556884,5806,34.3899993896484400,22.4507999420166000,36.4286003112793000,252.6858978271484400,8.7730045318603520,22.4550495147705080,28.0515193939209000,85,134,55,56,51,12946,2148249956,2149161234,2149370285,2147791835,2176813851,2187922550,2190365357,2154421586,1219,-1,9,60274
1354556917,5808,32.5000000000000000,22.4514007568359380,36.4276008605957000,252.6161041259765600,8.7601213455200200,22.4554405212402340,28.0542392730712900,85,139,56,56,51,12936,2148400722,2149338660,2149621412,2147917595,2180110976,2191776740,2193923181,2155439908,1120,-2,9,39754
1354556950,5807,30.6100006103515620,22.4507007598876950,36.4277992248535160,252.8462982177734400,8.7218637466430660,22.4566192626953120,28.0441303253173830,84,141,55,56,48,12939,2148591954,2149556086,2150027419,2148238089,2183842505,2196301522,2198058834,2156622253,858,-1,9,60248
1354556983,5804,28.7199993133544920,22.4510993957519530,36.4276008605957000,252.9512023925781200,8.6693468093872070,22.4582290649414060,28.0388603210449220,82,137,54,55,50,12932,2148797293,2149792146,2150333522,2148456932,2188440850,2201849810,2203060571,2158068617,602,-1,9,28155
1354557030,5806,26.0499992370605470,22.4507007598876950,36.4273986816406250,253.1383972167968800,8.6416120529174800,22.4590892791748050,28.0307102203369140,80,137,56,54,52,12932,2149027410,2150005046,2150444150,2148391140,2194625508,2209057280,2209439003,2160222363,287,-1,9,36316
